Location: Brienzwiler
(46.7508°N, 8.1014°E)
Time: 17:05:00
(UTC+00:00)

CARTOSAT-1 - Pass Details

Date: 05 July 2020
Orbit: 617 x 618 km, 97.8° (Epoch: 11 August)

Event Time Altitude Azimuth Distance (km) Brightness Sun altitude
Exits shadow 20:32:58 13° 144° (SE) 1,797 5.3 -9.6°
Maximum altitude 20:36:39 49° 71° (ENE) 803 4.0 -10.1°
Drops below altitude 10° 20:40:50 10° 357° (N) 1,994 7.0 -10.5°
Sets 20:43:05 0° 352° (N) 2,904 8.1 -10.8°
